Content
SEND FEEDBACK

Daily
Averages
Monthly
Summary
United States of America

TAMUNING, GUAM


Home > North America > United States > Guam
Elevation: 250 feet     Latitude: 13 29N     Longitude: 144 47E

WEATHER
 
SELECT A DAY
Number of Records: 350,245;   Date Range: 1/1/95 - 9/30/14
 
SHARE

PRINT THIS DATA

[ ← Previous Day ]
WEATHER ALMANAC - JULY 3, 2014
[ Next Day → ]
[ °C ]   °F
Weather ElementAverageHighLow
Temperature83 °F86 °F (8:43 am)80.6 °F (9:33 am)
Dewpoint77.6 °F80.6 °F (12:37 pm)73.4 °F (4:53 pm)
Humidity83.9 %94 % (9:42 am)74 % (9:03 am)
Barometer29.68 in29.73 in (12:18 am)29.61 in (2:58 pm)
Wind Speed20.4 mph34.5 mph (6:38 pm)
Wind Gust41.4 mph (11:08 pm)
Weather ElementAverage
Visibility8.9 mi
Wind DirectionENE (83.6 °)

Weather ElementTotal
Precipitation0.23 in
Cooling Degree Days18.3 (Base 65)
Growing Degree Days33.3 (Base 50)
Averaged from 92 records on July 3, 2014
WEATHER CONDITIONS BREAKOUT
WIND DIRECTION BREAKOUT
WEATHER BY HOUR - JULY 3, 2014
[ °C ]   °F
Local TimeTemperatureDewpointHumidityBarometerVisibilityWind DirectionWind SpeedGust SpeedPrecipitationEventsConditions
12:18 AM82.4 °F77.0 °F84 %29.73 in10.0 miEast (80°)16.1 mphMostly Cloudy
12:58 AM81.1 °F77.4 °F88 %29.68 in10.0 miEast (90°)13.8 mphScattered Clouds
1:48 AM82.4 °F77.0 °F84 %29.71 in10.0 miEast (100°)12.7 mphMostly Cloudy
1:53 AM82.4 °F77.0 °F84 %29.71 in10.0 miEast (90°)12.7 mphScattered Clouds
1:58 AM82.4 °F77.0 °F84 %29.68 in10.0 miEast (100°)11.5 mphScattered Clouds
2:58 AM81.7 °F76.6 °F85 %29.67 in10.0 miEast (100°)13.8 mphScattered Clouds
3:43 AM82.4 °F77.0 °F84 %29.69 in10.0 miEast (100°)12.7 mphMostly Cloudy
3:53 AM82.4 °F77.0 °F84 %29.69 in10.0 miEast (100°)11.5 mphScattered Clouds
3:58 AM81.7 °F76.6 °F85 %29.65 in10.0 miEast (100°)13.8 mphScattered Clouds
4:58 AM81.1 °F76.8 °F87 %29.66 in10.0 miEast (80°)13.8 mphPartly Cloudy
5:58 AM81.7 °F76.5 °F84 %29.68 in10.0 miEast (80°)15.0 mphScattered Clouds
6:03 AM82.4 °F77.0 °F84 %29.71 in10.0 miEast (80°)18.4 mphMostly Cloudy
6:08 AM82.4 °F75.2 °F79 %29.71 in10.0 miEast (80°)17.3 mphScattered Clouds
6:23 AM82.4 °F77.0 °F84 %29.72 in10.0 miEast (90°)13.8 mphMostly Cloudy
6:33 AM82.4 °F77.0 °F84 %29.71 in10.0 miEast (80°)13.8 mphScattered Clouds
6:47 AM82.4 °F77.0 °F84 %29.72 in7.0 miEast (80°)17.3 mphRainLight Rain
6:58 AM81.7 °F77.4 °F87 %29.69 in9.0 miEast (90°)15.0 mph0.00 inRainLight Rain
6:59 AM82.4 °F77.0 °F84 %29.72 in10.0 miEast (80°)13.8 mphScattered Clouds
7:58 AM84.2 °F78.8 °F84 %29.69 in10.0 miENE (70°)16.1 mph0.00 inMostly Cloudy
8:13 AM84.2 °F77.0 °F79 %29.72 in10.0 miEast (80°)18.4 mphMostly Cloudy
8:18 AM84.2 °F77.0 °F79 %29.72 in10.0 miEast (80°)19.6 mph25.3 mphMostly Cloudy
8:33 AM84.2 °F78.8 °F84 %29.72 in10.0 miENE (70°)16.1 mph24.2 mphMostly Cloudy
8:43 AM86.0 °F78.8 °F79 %29.72 in10.0 miEast (80°)21.9 mphScattered Clouds
8:53 AM84.2 °F78.8 °F84 %29.72 in10.0 miEast (80°)17.3 mphMostly Cloudy
8:58 AM84.9 °F78.3 °F80 %29.70 in10.0 miEast (80°)19.6 mphMostly Cloudy
9:03 AM86.0 °F77.0 °F74 %29.73 in10.0 miENE (70°)20.7 mphScattered Clouds
9:08 AM84.2 °F77.0 °F79 %29.73 in10.0 miEast (80°)20.7 mphMostly Cloudy
9:23 AM84.2 °F78.8 °F84 %29.73 in3.0 miEast (80°)16.1 mph24.2 mphRainLight Rain
9:28 AM82.4 °F78.8 °F89 %29.72 in1.2 miEast (90°)18.4 mph24.2 mphRainHeavy Rain
9:33 AM80.6 °F77.0 °F89 %29.73 in1.5 miEast (80°)16.1 mphRainRain
9:38 AM80.6 °F77.0 °F89 %29.73 in4.0 miEast (80°)15.0 mphRainLight Rain
9:42 AM80.6 °F78.8 °F94 %29.72 in10.0 miEast (80°)15.0 mphMostly Cloudy
9:47 AM82.4 °F78.8 °F89 %29.72 in10.0 miEast (80°)16.1 mphMostly Cloudy
9:58 AM83.8 °F79.0 °F85 %29.69 in10.0 miEast (80°)20.7 mph0.11 inScattered Clouds
10:38 AM84.2 °F78.8 °F84 %29.71 in10.0 miEast (80°)20.7 mphMostly Cloudy
11:55 AM86.0 °F78.8 °F79 %29.66 in10.0 miEast (80°)17.3 mph21.9 mphMostly Cloudy
12:27 PM84.2 °F78.8 °F84 %29.68 in1.5 miEast (90°)19.6 mph28.8 mphRainHeavy Rain
12:32 PM84.2 °F78.8 °F84 %29.68 in1.2 miEast (90°)19.6 mph29.9 mphRainLight Rain
12:37 PM84.2 °F80.6 °F89 %29.68 in6.0 miEast (90°)19.6 mph29.9 mphHaze
12:42 PM84.2 °F78.8 °F84 %29.68 in8.0 miEast (80°)18.4 mph26.5 mphMostly Cloudy
12:43 PM84.2 °F78.8 °F84 %29.68 in8.0 miEast (80°)19.6 mph26.5 mphRainLight Rain
12:48 PM84.2 °F78.8 °F84 %29.68 in6.0 miEast (90°)19.6 mph25.3 mphRainLight Rain
12:55 PM84.2 °F78.8 °F84 %29.68 in9.0 miEast (80°)21.9 mph27.6 mphMostly Cloudy
12:58 PM83.3 °F79.3 °F88 %29.65 in9.0 miEast (80°)20.7 mph27.6 mph0.06 inMostly Cloudy
1:13 PM86.0 °F78.8 °F79 %29.67 in10.0 miEast (80°)19.6 mph27.6 mphMostly Cloudy
1:23 PM86.0 °F78.8 °F79 %29.67 in10.0 miEast (80°)23.0 mph26.5 mphMostly Cloudy
1:39 PM86.0 °F78.8 °F79 %29.66 in10.0 miEast (80°)23.0 mphRainLight Rain
1:58 PM82.4 °F78.8 °F89 %29.63 in8.0 miEast (80°)15.0 mph27.6 mphLight Drizzle
1:59 PM82.4 °F78.8 °F89 %29.66 in10.0 miEast (80°)18.4 mphMostly Cloudy
2:19 PM84.2 °F78.8 °F84 %29.66 in10.0 miEast (80°)18.4 mphScattered Clouds
2:54 PM86.0 °F78.8 °F79 %29.64 in10.0 miEast (80°)19.6 mph25.3 mphMostly Cloudy
2:58 PM85.6 °F79.5 °F82 %29.61 in10.0 miEast (80°)21.9 mph25.3 mphMostly Cloudy
3:18 PM86.0 °F78.8 °F79 %29.65 in10.0 miEast (80°)17.3 mphScattered Clouds
3:34 PM84.2 °F78.8 °F84 %29.64 in6.0 miEast (90°)24.2 mph31.1 mphRainLight Rain
3:44 PM82.4 °F78.8 °F89 %29.64 in4.0 miEast (90°)18.4 mph32.2 mphRainLight Rain
3:48 PM82.4 °F78.8 °F89 %29.64 in10.0 miEast (80°)17.3 mph32.2 mphMostly Cloudy
3:58 PM82.9 °F79.7 °F90 %29.61 in10.0 miEast (80°)13.8 mph23.0 mph0.02 inMostly Cloudy
4:03 PM82.4 °F78.8 °F89 %29.64 in10.0 miEast (90°)16.1 mphMostly Cloudy
4:08 PM84.2 °F78.8 °F84 %29.64 in10.0 miEast (80°)19.6 mph25.3 mphMostly Cloudy
4:13 PM84.2 °F78.8 °F84 %29.63 in10.0 miEast (80°)21.9 mph29.9 mphMostly Cloudy
4:18 PM84.2 °F78.8 °F84 %29.63 in10.0 miEast (80°)21.9 mph29.9 mphMostly Cloudy
4:23 PM84.2 °F78.8 °F84 %29.64 in10.0 miEast (80°)23.0 mph28.8 mphThunderstormMostly Cloudy
4:53 PM80.6 °F73.4 °F79 %29.65 in10.0 miENE (60°)27.6 mph36.8 mphMostly Cloudy
4:58 PM80.6 °F74.1 °F81 %29.62 in10.0 miENE (70°)23.0 mph33.4 mph0.01 inScattered Clouds
5:58 PM82.0 °F78.1 °F88 %29.62 in10.0 miENE (70°)17.3 mph24.2 mphScattered Clouds
6:23 PM82.4 °F77.0 °F84 %29.65 in10.0 miEast (80°)28.8 mph34.5 mphMostly Cloudy
6:28 PM84.2 °F77.0 °F79 %29.65 in10.0 miEast (80°)24.2 mph34.5 mphMostly Cloudy
6:38 PM84.2 °F77.0 °F79 %29.65 in5.0 miEast (80°)34.5 mph40.3 mphHaze
6:39 PM82.4 °F77.0 °F84 %29.65 in3.0 miENE (70°)32.2 mph40.3 mphRainLight Rain
6:44 PM80.6 °F77.0 °F89 %29.65 in2.5 miEast (80°)23.0 mph40.3 mphRainLight Rain
6:48 PM80.6 °F77.0 °F89 %29.65 in5.0 miEast (80°)23.0 mph32.2 mphScattered Clouds
6:58 PM81.7 °F78.4 °F90 %29.62 in10.0 miENE (70°)17.3 mph31.1 mph0.02 inScattered Clouds
7:18 PM82.4 °F77.0 °F84 %29.65 in10.0 miEast (80°)29.9 mph39.1 mphMostly Cloudy
7:32 PM82.4 °F75.2 °F79 %29.66 in10.0 miEast (80°)25.3 mph40.3 mphScattered Clouds
7:58 PM81.5 °F76.6 °F85 %29.64 in10.0 miEast (80°)25.3 mph33.4 mphPartly Cloudy
8:23 PM82.4 °F78.8 °F89 %29.67 in10.0 miEast (80°)25.3 mph35.7 mphMostly Cloudy
8:38 PM82.4 °F78.8 °F89 %29.67 in10.0 miEast (80°)26.5 mph38.0 mphMostly Cloudy
8:44 PM82.4 °F78.8 °F89 %29.66 in8.0 miEast (80°)26.5 mph38.0 mphRainLight Rain
8:54 PM82.4 °F78.8 °F89 %29.67 in9.0 miEast (90°)27.6 mph35.7 mphMostly Cloudy
8:58 PM82.2 °F77.9 °F87 %29.64 in10.0 miEast (100°)23.0 mph35.7 mph0.00 inMostly Cloudy
9:08 PM82.4 °F77.0 °F84 %29.67 in10.0 miEast (90°)25.3 mph32.2 mphMostly Cloudy
9:13 PM82.4 °F77.0 °F84 %29.66 in10.0 miEast (90°)26.5 mph33.4 mphScattered Clouds
9:58 PM82.6 °F76.5 °F82 %29.65 in10.0 miEast (90°)24.2 mph32.2 mphMostly Cloudy
10:08 PM82.4 °F75.2 °F79 %29.68 in10.0 miEast (90°)24.2 mph38.0 mphScattered Clouds
10:13 PM82.4 °F75.2 °F79 %29.68 in10.0 miEast (90°)23.0 mph31.1 mphMostly Cloudy
10:18 PM82.4 °F77.0 °F84 %29.68 in10.0 miEast (90°)27.6 mph33.4 mphMostly Cloudy
10:58 PM82.4 °F76.3 °F82 %29.68 in10.0 miEast (90°)29.9 mph38.0 mph0.01 inMostly Cloudy
11:08 PM82.4 °F75.2 °F79 %29.68 in10.0 miEast (90°)28.8 mph41.4 mphMostly Cloudy
11:28 PM82.4 °F75.2 °F79 %29.69 in10.0 miEast (100°)25.3 mph35.7 mphMostly Cloudy
11:33 PM82.4 °F75.2 °F79 %29.68 in10.0 miEast (100°)29.9 mph36.8 mphMostly Cloudy
11:43 PM82.4 °F75.2 °F79 %29.68 in10.0 miEast (100°)28.8 mph40.3 mphScattered Clouds
11:58 PM82.6 °F75.7 °F80 %29.67 in10.0 miEast (90°)25.3 mph39.1 mphScattered Clouds
Hourly data recorded from PGUA, located miles away from Tamuning, Guam







STORIES FROM OUR PARTNERS